| time (UTC) | temp C | wind direction | speed KPH | gust KPH | rain 1hr cm | rain 24hr cm | rain mn cm | humidity % | barometer mb |
| 20260506103444 | 12 | 209 | 0.0 | 0.0 | 0.00 | 0.00 | 0.00 | 97 | 1021.4 |
| 20260506102940 | 12 | 187 | 0.0 | 1.6 | 0.00 | 0.00 | 0.00 | 97 | 1021.4 |
| 20260506102439 | 12 | 99 | 0.0 | 1.6 | 0.00 | 0.00 | 0.00 | 96 | 1021.3 |
| 20260506101936 | 12 | 81 | 0.0 | 0.0 | 0.00 | 0.00 | 0.00 | 96 | 1021.2 |
| 20260506101432 | 12 | 23 | 0.0 | 3.2 | 0.00 | 0.00 | 0.00 | 96 | 1021.3 |
| 20260506100930 | 12 | 5 | 0.0 | 3.2 | 0.00 | 0.00 | 0.00 | 97 | 1021.2 |
| 20260506100428 | 12 | 270 | 0.0 | 0.0 | 0.00 | 0.00 | 0.00 | 96 | 1021.1 |
| 20260506095925 | 12 | 203 | 0.0 | 1.6 | 0.00 | 0.00 | 0.00 | 96 | 1021.1 |
| 20260506095424 | 12 | 189 | 3.2 | 3.2 | 0.00 | 0.00 | 0.00 | 96 | 1021.2 |
| 20260506094919 | 12 | 74 | 0.0 | 0.0 | 0.00 | 0.00 | 0.00 | 96 | 1021.2 |
| 20260506094418 | 12 | 74 | 0.0 | 0.0 | 0.00 | 0.00 | 0.00 | 96 | 1021.2 |
| 20260506093916 | 12 | 60 | 0.0 | 1.6 | 0.00 | 0.00 | 0.00 | 96 | 1021.3 |
| 20260506093413 | 12 | 32 | 0.0 | 1.6 | 0.00 | 0.00 | 0.00 | 96 | 1021.1 |
| 20260506092911 | 12 | 337 | 0.0 | 0.0 | 0.00 | 0.00 | 0.00 | 96 | 1021.1 |
| 20260506092409 | 12 | 337 | 0.0 | 0.0 | 0.00 | 0.00 | 0.00 | 96 | 1021.3 |
| 20260506091905 | 12 | 0 | 1.6 | 1.6 | 0.00 | 0.00 | 0.00 | 96 | 1021.3 |
| 20260506091403 | 12 | 203 | 0.0 | 0.0 | 0.00 | 0.00 | 0.00 | 96 | 1021.4 |
| 20260506090900 | 12 | 203 | 0.0 | 1.6 | 0.00 | 0.00 | 0.00 | 96 | 1021.3 |
| 20260506090358 | 12 | 81 | 0.0 | 0.0 | 0.00 | 0.00 | 0.00 | 96 | 1021.2 |
| 20260506085854 | 12 | 81 | 0.0 | 0.0 | 0.00 | 0.00 | 0.00 | 96 | 1021.2 |
| 20260506085351 | 12 | 81 | 0.0 | 0.0 | 0.00 | 0.00 | 0.00 | 96 | 1021.3 |
| 20260506084847 | 12 | 81 | 0.0 | 1.6 | 0.00 | 0.00 | 0.00 | 96 | 1021.3 |
| 20260506084344 | 12 | 291 | 0.0 | 0.0 | 0.00 | 0.00 | 0.00 | 96 | 1021.3 |
| 20260506083841 | 12 | 346 | 0.0 | 0.0 | 0.00 | 0.00 | 0.00 | 96 | 1021.1 |
| 20260506083338 | 12 | 195 | 0.0 | 0.0 | 0.00 | 0.00 | 0.00 | 96 | 1021.2 |
| 20260506082835 | 12 | 195 | 0.0 | 0.0 | 0.00 | 0.00 | 0.00 | 96 | 1021.2 |
| 20260506082332 | 12 | 195 | 0.0 | 1.6 | 0.00 | 0.00 | 0.00 | 96 | 1021.2 |
| 20260506081828 | 12 | 90 | 0.0 | 0.0 | 0.00 | 0.00 | 0.00 | 96 | 1021.2 |
| 20260506081326 | 12 | 90 | 0.0 | 1.6 | 0.00 | 0.00 | 0.00 | 96 | 1021.2 |
| 20260506080823 | 12 | 14 | 0.0 | 1.6 | 0.00 | 0.00 | 0.00 | 96 | 1021.2 |
| 20260506080320 | 12 | 203 | 0.0 | 0.0 | 0.00 | 0.00 | 0.00 | 96 | 1021.3 |
| 20260506073304 | 12 | 198 | 0.0 | 0.0 | 0.00 | 0.00 | 0.00 | 95 | 1021.1 |
| 20260506072801 | 12 | 14 | 0.0 | 0.0 | 0.00 | 0.00 | 0.00 | 95 | 1021.1 |
| 20260506072258 | 12 | 0 | 0.0 | 3.2 | 0.00 | 0.00 | 0.00 | 95 | 1020.9 |
| 20260506071756 | 12 | 106 | 0.0 | 1.6 | 0.00 | 0.00 | 0.00 | 95 | 1020.9 |
| 20260506071254 | 12 | 0 | 0.0 | 3.2 | 0.00 | 0.00 | 0.00 | 95 | 1021.0 |
| 20260506070750 | 12 | 8 | 0.0 | 0.0 | 0.00 | 0.00 | 0.00 | 95 | 1021.0 |
| 20260506070247 | 12 | 23 | 0.0 | 1.6 | 0.00 | 0.00 | 0.00 | 94 | 1020.7 |
| 20260506062224 | 12 | 106 | 0.0 | 0.0 | 0.00 | 0.10 | 0.10 | 95 | 1020.4 |
| 20260506061720 | 12 | 90 | 0.0 | 0.0 | 0.00 | 0.10 | 0.10 | 95 | 1020.4 |
| 20260506061218 | 12 | 195 | 0.0 | 0.0 | 0.00 | 0.10 | 0.10 | 95 | 1020.5 |
| 20260506060716 | 12 | 195 | 0.0 | 1.6 | 0.00 | 0.10 | 0.10 | 95 | 1020.3 |
| 20260506060213 | 12 | 103 | 0.0 | 1.6 | 0.00 | 0.10 | 0.10 | 95 | 1020.3 |
| 20260506051145 | 12 | 81 | 0.0 | 0.0 | 0.00 | 0.10 | 0.10 | 94 | 1019.8 |
| 20260506050643 | 12 | 81 | 0.0 | 0.0 | 0.00 | 0.10 | 0.10 | 94 | 1019.9 |
| 20260506050140 | 12 | 81 | 0.0 | 0.0 | 0.00 | 0.10 | 0.10 | 94 | 1019.7 |
| 20260506045133 | 12 | 60 | 0.0 | 1.6 | 0.00 | 0.10 | 0.10 | 93 | 1019.7 |
| 20260506044631 | 12 | 203 | 0.0 | 0.0 | 0.00 | 0.10 | 0.10 | 93 | 1019.7 |
| 20260506044128 | 12 | 200 | 1.6 | 1.6 | 0.00 | 0.10 | 0.10 | 93 | 1019.6 |
| 20260506043625 | 12 | 203 | 1.6 | 1.6 | 0.00 | 0.10 | 0.10 | 93 | 1019.7 |
| 20260506043123 | 12 | 215 | 1.6 | 1.6 | 0.00 | 0.10 | 0.10 | 93 | 1019.6 |
| 20260506042622 | 13 | 188 | 0.0 | 0.0 | 0.00 | 0.10 | 0.10 | 93 | 1019.7 |
| 20260506042119 | 13 | 195 | 1.6 | 1.6 | 0.00 | 0.10 | 0.10 | 93 | 1019.4 |
| 20260506041618 | 13 | 278 | 0.0 | 0.0 | 0.00 | 0.10 | 0.10 | 92 | 1019.4 |
| 20260506041114 | 13 | 278 | 0.0 | 1.6 | 0.00 | 0.10 | 0.10 | 93 | 1019.3 |
| 20260506040612 | 13 | 66 | 0.0 | 0.0 | 0.00 | 0.10 | 0.10 | 92 | 1019.3 |
| 20260506040108 | 13 | 350 | 3.2 | 3.2 | 0.00 | 0.10 | 0.10 | 92 | 1019.2 |
| 20260506035606 | 13 | 194 | 0.0 | 0.0 | 0.00 | 0.10 | 0.10 | 92 | 1019.1 |
| 20260506035102 | 13 | 110 | 0.0 | 3.2 | 0.00 | 0.10 | 0.10 | 92 | 1018.9 |
| 20260506034559 | 13 | 194 | 0.0 | 1.6 | 0.00 | 0.10 | 0.10 | 92 | 1019.0 |
| 20260506034056 | 13 | 90 | 0.0 | 0.0 | 0.00 | 0.10 | 0.10 | 91 | 1019.0 |
| 20260506033553 | 13 | 90 | 0.0 | 0.0 | 0.00 | 0.10 | 0.10 | 91 | 1019.1 |
| 20260506033050 | 13 | 81 | 0.0 | 1.6 | 0.00 | 0.10 | 0.10 | 90 | 1019.1 |
| 20260506032548 | 13 | 15 | 1.6 | 1.6 | 0.00 | 0.10 | 0.10 | 90 | 1018.8 |
| 20260506032044 | 13 | 353 | 0.0 | 1.6 | 0.00 | 0.10 | 0.10 | 90 | 1019.0 |
| 20260506031542 | 13 | 352 | 0.0 | 0.0 | 0.00 | 0.10 | 0.10 | 90 | 1018.8 |
| 20260506031039 | 13 | 352 | 0.0 | 0.0 | 0.00 | 0.10 | 0.10 | 89 | 1018.5 |
| 20260506030537 | 13 | 352 | 0.0 | 0.0 | 0.00 | 0.10 | 0.10 | 90 | 1018.5 |
| 20260506030034 | 13 | 352 | 0.0 | 0.0 | 0.00 | 0.10 | 0.10 | 89 | 1018.5 |
| 20260506025531 | 14 | 74 | 0.0 | 0.0 | 0.00 | 0.10 | 0.10 | 89 | 1018.3 |
| 20260506025027 | 13 | 111 | 0.0 | 1.6 | 0.00 | 0.10 | 0.10 | 88 | 1018.3 |
| 20260506024524 | 14 | 90 | 0.0 | 3.2 | 0.00 | 0.10 | 0.10 | 88 | 1018.3 |
| 20260506024020 | 14 | 99 | 0.0 | 0.0 | 0.00 | 0.10 | 0.10 | 86 | 1018.2 |
| 20260506023516 | 14 | 180 | 0.0 | 0.0 | 0.00 | 0.10 | 0.10 | 86 | 1018.2 |
| 20260506023014 | 15 | 114 | 0.0 | 1.6 | 0.00 | 0.10 | 0.10 | 85 | 1018.2 |
| 20260506022511 | 15 | 206 | 1.6 | 3.2 | 0.00 | 0.10 | 0.10 | 84 | 1018.1 |
| 20260506022009 | 15 | 105 | 1.6 | 4.8 | 0.00 | 0.10 | 0.10 | 84 | 1018.1 |
| 20260506021506 | 15 | 194 | 0.0 | 6.4 | 0.00 | 0.10 | 0.10 | 82 | 1018.1 |
| 20260506021003 | 15 | 81 | 0.0 | 4.8 | 0.00 | 0.10 | 0.10 | 83 | 1018.0 |
| 20260506020501 | 15 | 159 | 3.2 | 4.8 | 0.00 | 0.10 | 0.10 | 83 | 1017.7 |
| 20260506015957 | 15 | 152 | 3.2 | 9.7 | 0.00 | 0.10 | 0.10 | 83 | 1017.6 |
| 20260506015455 | 15 | 151 | 4.8 | 8.0 | 0.00 | 0.10 | 0.10 | 84 | 1017.6 |
| 20260506014952 | 15 | 140 | 0.0 | 8.0 | 0.00 | 0.10 | 0.10 | 83 | 1017.9 |
| 20260506014449 | 15 | 144 | 4.8 | 9.7 | 0.00 | 0.10 | 0.10 | 83 | 1017.7 |
| 20260506013945 | 15 | 173 | 1.6 | 6.4 | 0.00 | 0.10 | 0.10 | 83 | 1018.0 |
| 20260506013443 | 15 | 147 | 3.2 | 4.8 | 0.00 | 0.10 | 0.10 | 83 | 1017.8 |
| 20260506012939 | 15 | 41 | 0.0 | 6.4 | 0.00 | 0.10 | 0.10 | 83 | 1018.0 |
| 20260506012436 | 15 | 114 | 3.2 | 8.0 | 0.00 | 0.10 | 0.10 | 83 | 1017.9 |
| 20260506011933 | 15 | 95 | 3.2 | 4.8 | 0.00 | 0.10 | 0.10 | 84 | 1018.0 |
| 20260506011431 | 15 | 120 | 1.6 | 4.8 | 0.00 | 0.10 | 0.10 | 85 | 1017.9 |
| 20260506010927 | 15 | 74 | 1.6 | 3.2 | 0.00 | 0.10 | 0.10 | 86 | 1017.8 |
| 20260506010426 | 15 | 123 | 0.0 | 4.8 | 0.00 | 0.10 | 0.10 | 85 | 1017.8 |
| 20260506005922 | 15 | 68 | 0.0 | 3.2 | 0.00 | 0.10 | 0.10 | 86 | 1017.8 |
| 20260506005420 | 15 | 81 | 3.2 | 3.2 | 0.00 | 0.10 | 0.10 | 86 | 1018.1 |
| 20260506004915 | 15 | 74 | 0.0 | 1.6 | 0.00 | 0.10 | 0.10 | 85 | 1017.9 |
| 20260506004413 | 15 | 48 | 0.0 | 3.2 | 0.00 | 0.10 | 0.10 | 85 | 1018.0 |
| 20260506003909 | 14 | 81 | 0.0 | 3.2 | 0.00 | 0.10 | 0.10 | 85 | 1017.7 |
| 20260506003405 | 15 | 120 | 0.0 | 3.2 | 0.00 | 0.10 | 0.10 | 85 | 1017.7 |
| 20260506002902 | 15 | 66 | 0.0 | 1.6 | 0.00 | 0.10 | 0.10 | 86 | 1017.8 |
| 20260506002358 | 15 | 40 | 0.0 | 3.2 | 0.00 | 0.10 | 0.10 | 86 | 1017.8 |
| 20260506001853 | 15 | 106 | 0.0 | 3.2 | 0.00 | 0.10 | 0.10 | 86 | 1017.8 |
| 20260506001351 | 15 | 98 | 1.6 | 1.6 | 0.00 | 0.10 | 0.10 | 86 | 1017.9 |
| 20260506000848 | 15 | 69 | 0.0 | 3.2 | 0.00 | 0.10 | 0.10 | 85 | 1017.7 |
| 20260506000346 | 15 | 114 | 0.0 | 1.6 | 0.00 | 0.10 | 0.10 | 86 | 1017.7 |
| 20260505235842 | 15 | 71 | 0.0 | 3.2 | 0.00 | 0.10 | 0.10 | 85 | 1017.6 |
| 20260505235340 | 15 | 52 | 3.2 | 3.2 | 0.00 | 0.10 | 0.10 | 86 | 1017.6 |
| 20260505234836 | 15 | 90 | 0.0 | 1.6 | 0.00 | 0.10 | 0.10 | 85 | 1017.6 |
| 20260505234334 | 15 | 8 | 0.0 | 3.2 | 0.00 | 0.10 | 0.10 | 85 | 1017.5 |
| 20260505233831 | 15 | 60 | 0.0 | 3.2 | 0.00 | 0.10 | 0.10 | 83 | 1017.7 |
| 20260505233329 | 15 | 151 | 1.6 | 6.4 | 0.00 | 0.10 | 0.10 | 81 | 1017.5 |
| 20260505232826 | 15 | 132 | 6.4 | 8.0 | 0.00 | 0.10 | 0.10 | 83 | 1017.5 |
| 20260505232324 | 15 | 135 | 3.2 | 4.8 | 0.00 | 0.10 | 0.10 | 83 | 1017.5 |
| 20260505231820 | 15 | 117 | 0.0 | 3.2 | 0.00 | 0.10 | 0.10 | 81 | 1017.6 |
| 20260505231318 | 15 | 123 | 3.2 | 3.2 | 0.00 | 0.10 | 0.10 | 82 | 1017.7 |
| 20260505230816 | 15 | 270 | 0.0 | 8.0 | 0.00 | 0.10 | 0.10 | 80 | 1017.6 |
| 20260505230313 | 15 | 191 | 3.2 | 4.8 | 0.00 | 0.10 | 0.10 | 81 | 1017.6 |
| 20260505225809 | 15 | 120 | 1.6 | 4.8 | 0.00 | 0.10 | 0.10 | 81 | 1017.6 |
| 20260505225307 | 15 | 90 | 6.4 | 8.0 | 0.00 | 0.10 | 0.10 | 79 | 1017.6 |
| 20260505224801 | 16 | 97 | 1.6 | 4.8 | 0.00 | 0.10 | 0.10 | 81 | 1017.5 |
| 20260505224300 | 16 | 264 | 0.0 | 3.2 | 0.00 | 0.10 | 0.10 | 77 | 1017.5 |
| 20260505223757 | 16 | 74 | 0.0 | 3.2 | 0.00 | 0.10 | 0.10 | 79 | 1017.6 |
| 20260505223253 | 16 | 356 | 3.2 | 3.2 | 0.00 | 0.10 | 0.10 | 78 | 1017.4 |
| 20260505222749 | 16 | 63 | 3.2 | 4.8 | 0.00 | 0.10 | 0.10 | 76 | 1017.8 |
| 20260505222246 | 16 | 99 | 0.0 | 3.2 | 0.00 | 0.10 | 0.10 | 78 | 1017.5 |
| 20260505221743 | 16 | 285 | 3.2 | 4.8 | 0.00 | 0.10 | 0.10 | 77 | 1017.7 |
| 20260505221239 | 16 | 0 | 0.0 | 3.2 | 0.00 | 0.10 | 0.10 | 81 | 1017.5 |
| 20260505220736 | 15 | 96 | 1.6 | 3.2 | 0.00 | 0.10 | 0.10 | 77 | 1017.9 |
| 20260505220233 | 15 | 254 | 1.6 | 4.8 | 0.00 | 0.10 | 0.10 | 81 | 1017.9 |
| 20260505215732 | 15 | 0 | 3.2 | 3.2 | 0.00 | 0.10 | 0.10 | 81 | 1017.8 |
| 20260505215229 | 15 | 270 | 3.2 | 4.8 | 0.00 | 0.10 | 0.10 | 80 | 1017.8 |
| 20260505214727 | 15 | 352 | 0.0 | 1.6 | 0.00 | 0.10 | 0.10 | 80 | 1017.9 |
| 20260505214224 | 15 | 357 | 3.2 | 4.8 | 0.00 | 0.10 | 0.10 | 83 | 1017.9 |
| 20260505213721 | 15 | 99 | 0.0 | 1.6 | 0.00 | 0.10 | 0.10 | 80 | 1017.9 |
| 20260505213218 | 15 | 356 | 3.2 | 4.8 | 0.00 | 0.10 | 0.10 | 79 | 1018.1 |
| 20260505212714 | 15 | 90 | 0.0 | 3.2 | 0.00 | 0.10 | 0.10 | 79 | 1017.9 |
| 20260505212212 | 15 | 180 | 0.0 | 3.2 | 0.00 | 0.10 | 0.10 | 80 | 1017.8 |
| 20260505211708 | 15 | 77 | 3.2 | 4.8 | 0.00 | 0.10 | 0.10 | 82 | 1018.0 |
| 20260505211206 | 15 | 26 | 3.2 | 4.8 | 0.00 | 0.10 | 0.10 | 81 | 1018.1 |
| 20260505210702 | 15 | 308 | 0.0 | 4.8 | 0.00 | 0.10 | 0.10 | 80 | 1018.1 |
| 20260505210159 | 15 | 194 | 0.0 | 4.8 | 0.00 | 0.10 | 0.10 | 81 | 1017.8 |
| 20260505205657 | 15 | 234 | 0.0 | 8.0 | 0.00 | 0.10 | 0.10 | 82 | 1017.9 |
| 20260505205155 | 15 | 261 | 0.0 | 6.4 | 0.00 | 0.10 | 0.10 | 81 | 1017.8 |
| 20260505204651 | 15 | 0 | 1.6 | 3.2 | 0.00 | 0.10 | 0.10 | 82 | 1018.0 |
| 20260505204149 | 15 | 139 | 3.2 | 4.8 | 0.00 | 0.10 | 0.10 | 81 | 1018.0 |
| 20260505203646 | 15 | 23 | 0.0 | 3.2 | 0.00 | 0.10 | 0.10 | 81 | 1017.9 |
| 20260505203142 | 15 | 163 | 3.2 | 4.8 | 0.00 | 0.10 | 0.10 | 80 | 1017.8 |
| 20260505202638 | 14 | 185 | 0.0 | 9.7 | 0.00 | 0.10 | 0.10 | 81 | 1018.0 |
| 20260505202134 | 15 | 90 | 0.0 | 3.2 | 0.00 | 0.10 | 0.10 | 84 | 1018.0 |
| 20260505201631 | 15 | 187 | 1.6 | 9.7 | 0.00 | 0.10 | 0.10 | 83 | 1017.8 |
| 20260505201129 | 15 | 117 | 4.8 | 6.4 | 0.00 | 0.10 | 0.10 | 81 | 1018.0 |
| 20260505200627 | 15 | 125 | 0.0 | 6.4 | 0.00 | 0.10 | 0.10 | 80 | 1018.0 |
| 20260505200124 | 15 | 98 | 0.0 | 4.8 | 0.00 | 0.10 | 0.10 | 81 | 1017.9 |
| 20260505195620 | 15 | 253 | 3.2 | 6.4 | 0.00 | 0.10 | 0.10 | 82 | 1018.1 |
| 20260505195117 | 15 | 135 | 4.8 | 8.0 | 0.00 | 0.10 | 0.10 | 81 | 1018.0 |
| 20260505194614 | 15 | 206 | 6.4 | 8.0 | 0.00 | 0.10 | 0.10 | 82 | 1018.0 |
| 20260505194110 | 14 | 270 | 3.2 | 6.4 | 0.00 | 0.10 | 0.10 | 83 | 1018.0 |
| 20260505193607 | 15 | 194 | 3.2 | 9.7 | 0.00 | 0.10 | 0.10 | 82 | 1017.9 |
| 20260505193104 | 15 | 220 | 4.8 | 6.4 | 0.00 | 0.10 | 0.10 | 84 | 1018.1 |
| 20260505192603 | 15 | 315 | 3.2 | 4.8 | 0.00 | 0.10 | 0.10 | 82 | 1018.1 |
| 20260505192100 | 15 | 243 | 0.0 | 6.4 | 0.00 | 0.10 | 0.10 | 84 | 1018.2 |
| 20260505191558 | 15 | 188 | 0.0 | 6.4 | 0.00 | 0.10 | 0.10 | 85 | 1018.0 |
| 20260505191056 | 15 | 6 | 1.6 | 4.8 | 0.00 | 0.10 | 0.10 | 84 | 1018.0 |
| 20260505190550 | 15 | 210 | 3.2 | 8.0 | 0.00 | 0.10 | 0.10 | 84 | 1017.9 |
| 20260505190046 | 15 | 352 | 4.8 | 4.8 | 0.00 | 0.10 | 0.10 | 84 | 1017.9 |
| 20260505185543 | 15 | 275 | 3.2 | 6.4 | 0.00 | 0.10 | 0.10 | 82 | 1018.1 |
| 20260505185040 | 15 | 320 | 4.8 | 8.0 | 0.00 | 0.10 | 0.10 | 79 | 1018.0 |
| 20260505184537 | 15 | 338 | 3.2 | 4.8 | 0.00 | 0.10 | 0.10 | 79 | 1017.8 |
| 20260505184033 | 16 | 285 | 1.6 | 4.8 | 0.00 | 0.10 | 0.10 | 81 | 1017.9 |
| 20260505183530 | 16 | 336 | 0.0 | 4.8 | 0.00 | 0.10 | 0.10 | 81 | 1017.7 |
| 20260505183028 | 15 | 154 | 3.2 | 6.4 | 0.00 | 0.10 | 0.10 | 77 | 1018.0 |
| 20260505182524 | 15 | 70 | 3.2 | 4.8 | 0.00 | 0.10 | 0.10 | 78 | 1017.7 |
| 20260505182020 | 16 | 277 | 1.6 | 3.2 | 0.00 | 0.10 | 0.10 | 80 | 1017.6 |
| 20260505181517 | 15 | 192 | 1.6 | 4.8 | 0.00 | 0.10 | 0.10 | 80 | 1017.8 |
| 20260505181015 | 15 | 270 | 0.0 | 6.4 | 0.00 | 0.10 | 0.10 | 83 | 1017.6 |
| 20260505180510 | 15 | 0 | 3.2 | 3.2 | 0.00 | 0.10 | 0.10 | 83 | 1017.6 |
| 20260505180009 | 15 | 220 | 4.8 | 4.8 | 0.00 | 0.10 | 0.10 | 79 | 1017.5 |
| 20260505175503 | 15 | 291 | 1.6 | 4.8 | 0.00 | 0.10 | 0.10 | 79 | 1017.6 |
| 20260505175000 | 15 | 3 | 3.2 | 6.4 | 0.00 | 0.10 | 0.10 | 80 | 1017.5 |
| 20260505174457 | 15 | 83 | 1.6 | 4.8 | 0.00 | 0.10 | 0.10 | 83 | 1017.7 |
| 20260505173953 | 13 | 107 | 3.2 | 6.4 | 0.00 | 0.10 | 0.10 | 82 | 1017.5 |
| 20260505173450 | 14 | 128 | 3.2 | 4.8 | 0.00 | 0.10 | 0.10 | 80 | 1017.5 |
| 20260505172947 | 15 | 180 | 1.6 | 3.2 | 0.00 | 0.10 | 0.10 | 79 | 1017.5 |
| 20260505172445 | 13 | 0 | 0.0 | 4.8 | 0.00 | 0.10 | 0.10 | 84 | 1017.4 |
| 20260505171944 | 13 | 121 | 0.0 | 4.8 | 0.00 | 0.10 | 0.10 | 83 | 1017.3 |
| 20260505171442 | 13 | 111 | 1.6 | 6.4 | 0.00 | 0.10 | 0.10 | 85 | 1017.5 |
| 20260505170938 | 13 | 221 | 3.2 | 3.2 | 0.00 | 0.10 | 0.10 | 87 | 1017.5 |
| 20260505170435 | 12 | 90 | 0.0 | 4.8 | 0.00 | 0.10 | 0.10 | 87 | 1017.7 |
| 20260505165930 | 12 | 48 | 3.2 | 6.4 | 0.00 | 0.10 | 0.10 | 87 | 1017.7 |
| 20260505165426 | 12 | 96 | 4.8 | 6.4 | 0.00 | 0.10 | 0.10 | 88 | 1017.6 |
| 20260505164922 | 12 | 127 | 4.8 | 9.7 | 0.00 | 0.10 | 0.10 | 90 | 1017.6 |
| 20260505164419 | 12 | 72 | 4.8 | 4.8 | 0.00 | 0.10 | 0.10 | 90 | 1017.5 |
| 20260505163917 | 11 | 115 | 4.8 | 6.4 | 0.00 | 0.10 | 0.10 | 93 | 1017.6 |
| 20260505163416 | 11 | 143 | 6.4 | 8.0 | 0.00 | 0.10 | 0.10 | 95 | 1017.6 |
| 20260505162914 | 11 | 144 | 4.8 | 6.4 | 0.00 | 0.10 | 0.10 | 97 | 1017.4 |
| 20260505162409 | 10 | 195 | 0.0 | 6.4 | 0.00 | 0.10 | 0.10 | 97 | 1017.4 |
| 20260505161907 | 10 | 132 | 3.2 | 9.7 | 0.00 | 0.10 | 0.10 | 98 | 1017.6 |
| 20260505161404 | 10 | 148 | 3.2 | 4.8 | 0.00 | 0.10 | 0.10 | 98 | 1017.7 |
| 20260505160901 | 10 | 139 | 3.2 | 6.4 | 0.00 | 0.10 | 0.10 | 98 | 1017.4 |
| 20260505160359 | 10 | 90 | 4.8 | 6.4 | 0.00 | 0.10 | 0.10 | 98 | 1017.5 |
| 20260505153338 | 10 | 54 | 1.6 | 4.8 | 0.00 | 0.10 | 0.10 | 99 | 1017.4 |
| 20260505152834 | 10 | 246 | 0.0 | 4.8 | 0.00 | 0.10 | 0.10 | 99 | 1017.4 |
| 20260505152331 | 10 | 154 | 1.6 | 3.2 | 0.00 | 0.10 | 0.10 | 99 | 1017.3 |
| 20260505151826 | 11 | 184 | 3.2 | 3.2 | 0.00 | 0.10 | 0.10 | 99 | 1017.2 |
| 20260505151323 | 10 | 114 | 0.0 | 3.2 | 0.00 | 0.10 | 0.10 | 99 | 1017.3 |
| 20260505150819 | 10 | 45 | 0.0 | 3.2 | 0.00 | 0.10 | 0.10 | 99 | 1017.1 |
| 20260505150317 | 10 | 348 | 0.0 | 1.6 | 0.00 | 0.10 | 0.10 | 99 | 1017.2 |
| 20260505140241 | 10 | 355 | 1.6 | 1.6 | 0.00 | 0.10 | 0.10 | 99 | 1016.7 |
| 20260505130205 | 10 | 165 | 0.0 | 4.8 | 0.00 | 0.10 | 0.10 | 99 | 1016.5 |
| 20260505124655 | 10 | 145 | 1.6 | 3.2 | 0.00 | 0.10 | 0.10 | 99 | 1016.5 |
| 20260505124151 | 10 | 114 | 1.6 | 1.6 | 0.00 | 0.10 | 0.10 | 99 | 1016.3 |
| 20260505123647 | 10 | 99 | 0.0 | 0.0 | 0.00 | 0.10 | 0.10 | 99 | 1016.4 |
| 20260505123144 | 10 | 154 | 0.0 | 1.6 | 0.00 | 0.10 | 0.10 | 99 | 1016.1 |
| 20260505122641 | 10 | 135 | 3.2 | 3.2 | 0.00 | 0.10 | 0.10 | 99 | 1016.3 |
| 20260505122138 | 10 | 114 | 0.0 | 1.6 | 0.00 | 0.10 | 0.10 | 99 | 1016.3 |
| 20260505121634 | 10 | 111 | 0.0 | 3.2 | 0.00 | 0.10 | 0.10 | 99 | 1016.3 |
| 20260505121132 | 10 | 78 | 0.0 | 4.8 | 0.00 | 0.10 | 0.10 | 99 | 1016.3 |
| 20260505120627 | 10 | 111 | 0.0 | 4.8 | 0.00 | 0.10 | 0.10 | 99 | 1016.3 |
| 20260505120124 | 10 | 96 | 0.0 | 3.2 | 0.00 | 0.10 | 0.10 | 99 | 1016.5 |
| 20260505115618 | 10 | 165 | 0.0 | 3.2 | 0.00 | 0.10 | 0.10 | 99 | 1016.2 |
| 20260505115116 | 10 | 99 | 0.0 | 1.6 | 0.00 | 0.10 | 0.10 | 99 | 1016.3 |
| 20260505114612 | 10 | 90 | 1.6 | 4.8 | 0.00 | 0.10 | 0.10 | 99 | 1016.5 |
| 20260505114109 | 10 | 102 | 1.6 | 1.6 | 0.00 | 0.10 | 0.10 | 99 | 1016.4 |
| 20260505113605 | 10 | 140 | 0.0 | 1.6 | 0.00 | 0.10 | 0.10 | 99 | 1016.5 |
| 20260505113102 | 10 | 145 | 1.6 | 1.6 | 0.00 | 0.10 | 0.10 | 99 | 1016.5 |
| 20260505112558 | 10 | 172 | 0.0 | 3.2 | 0.00 | 0.10 | 0.10 | 99 | 1016.7 |
| 20260505112056 | 10 | 36 | 0.0 | 3.2 | 0.00 | 0.10 | 0.10 | 99 | 1016.6 |
| 20260505111550 | 10 | 111 | 0.0 | 3.2 | 0.00 | 0.10 | 0.10 | 99 | 1016.4 |
| 20260505111046 | 10 | 114 | 0.0 | 3.2 | 0.00 | 0.10 | 0.10 | 99 | 1016.4 |
| 20260505110543 | 10 | 90 | 0.0 | 3.2 | 0.00 | 0.10 | 0.10 | 99 | 1016.3 |